Wind_Speed
40 41 43 43 43 44 45 45 45 45 44 44 44 44 43 43 44 45 45 46 46 45 45 45 45 45 45 45 45 45 45 45 44 43 43 44 45 45 45 46 45 45 45
40 40 41 42 42 43 43 44 44 44 43 43 43 43 43 43 43 43 44 44 44 45 45 47 47 46 46 46 45 45 45 45 44 44 44 45 44 45 46 47 46 46 45
40 39 39 40 40 41 42 43 44 45 45 44 43 42 42 42 42 42 42 44 44 45 46 46 46 46 46 46 45 45 44 44 44 45 45 45 45 46 46 47 47 48 47
39 39 39 39 40 41 42 43 44 45 45 44 44 44 44 44 42 42 42 44 44 45 45 45 44 45 45 45 45 44 44 44 45 45 45 45 46 46 46 47 47 47 47
38 38 39 40 40 42 43 43 44 44 45 45 45 44 45 45 44 43 43 43 43 43 43 43 43 43 43 43 43 42 42 43 43 44 44 44 44 45 45 45 45 45 44
38 39 40 40 41 41 42 43 44 45 46 47 46 45 45 45 44 44 43 43 43 42 40 41 42 42 41 41 41 41 42 42 42 42 42 43 43 43 43 43 43 43 42
38 39 40 40 41 41 42 42 43 43 44 44 45 45 45 45 45 44 43 42 41 40 39 40 41 40 39 38 39 40 41 41 42 42 42 42 42 42 42 42 41 41 41
38 40 41 41 41 41 41 42 41 42 42 42 43 44 44 43 43 42 41 41 40 39 39 40 39 38 37 37 38 40 41 41 41 41 41 40 40 40 40 39 39 39 40
36 38 39 40 40 41 40 40 40 40 41 41 42 41 41 41 41 41 40 39 38 38 39 38 37 37 37 38 39 39 39 38 39 39 39 39 38 38 38 37 38 38 38
35 36 37 39 39 40 40 39 39 39 39 39 40 40 39 39 39 38 38 37 37 38 37 37 36 37 37 38 39 38 38 37 37 37 37 37 37 37 37 37 37 38 38
34 35 35 36 36 37 38 39 39 38 38 38 39 39 38 37 37 36 36 35 35 36 36 35 35 36 37 37 38 37 37 36 36 35 35 36 35 35 36 36 36 36 37
32 34 34 34 34 35 35 36 37 37 37 38 38 37 37 36 35 34 34 33 34 34 34 35 35 36 36 36 36 36 35 35 34 34 35 35 35 35 34 35 34 35 34
31 32 33 34 34 34 34 34 33 35 35 35 35 35 35 34 33 33 32 32 32 32 33 34 35 35 36 36 36 36 36 35 34 34 34 34 34 33 33 32 32 31 31
31 31 31 31 32 33 33 33 32 33 33 34 34 34 34 33 32 32 32 32 32 32 32 32 34 35 35 36 35 35 34 34 34 33 33 32 32 31 31 30 29 28 29
31 31 31 31 31 31 31 30 32 32 32 33 33 33 33 32 32 32 31 30 31 31 31 31 32 33 33 33 32 32 32 32 32 31 30 29 28 29 29 28 27 27 27
31 31 30 30 29 30 30 30 30 31 32 32 32 32 31 31 31 31 31 31 31 31 31 30 31 31 31 31 31 31 30 29 28 27 27 26 26 26 26 25 25 25 25
30 29 29 29 29 28 28 28 28 29 29 29 29 29 30 30 30 30 30 30 31 31 31 30 30 30 29 29 29 28 27 26 25 25 25 25 25 24 23 23 23 23 23
29 29 30 30 30 29 27 27 27 27 26 27 27 27 28 29 30 30 30 30 29 29 29 28 28 27 27 26 26 25 24 24 24 23 23 22 22 21 21 21 21 21 20
30 30 30 29 29 28 27 26 25 25 25 26 26 26 27 27 28 29 29 29 28 27 27 27 26 25 25 24 23 22 22 22 21 21 20 20 20 20 20 20 19 19 18
28 28 27 27 27 27 26 26 25 25 24 25 25 26 26 26 26 26 26 26 25 25 25 25 24 24 23 22 21 20 20 20 20 19 19 19 19 18 18 18 17 16 15
26 26 26 26 26 26 26 25 25 24 23 24 24 24 24 24 24 24 23 22 22 22 22 23 22 22 21 19 18 18 18 18 18 18 17 17 17 16 16 15 15 14 13
25 25 25 25 25 25 24 24 23 23 22 23 23 22 22 21 21 21 21 21 21 21 22 21 21 20 19 17 17 16 17 17 17 17 17 16 16 15 15 14 13 12 11
23 23 23 23 23 23 23 23 23 23 22 22 22 21 20 20 20 20 19 19 19 20 21 21 20 18 17 16 15 15 16 16 16 15 15 14 15 14 13 12 11 11 10
22 22 21 21 21 21 22 22 22 22 21 21 20 20 19 19 19 19 19 19 19 19 19 18 18 16 16 15 15 15 15 15 15 14 13 13 13 12 12 11 10 10 9
20 20 20 19 19 19 20 20 20 20 20 20 19 19 19 19 18 18 18 18 18 18 17 17 16 16 15 15 15 15 15 14 14 14 13 13 12 11 10 9 9 9 8
19 19 18 18 18 18 18 18 18 18 18 18 18 18 18 18 18 18 17 16 16 17 17 16 16 15 15 14 14 14 14 14 14 13 13 11 10 9 9 8 8 8 7
Wind_Direction
252 252 252 253 254 255 256 258 260 262 265 267 268 269 270 270 270 272 272 273 274 274 275 277 277 279 281 282 284 285 286 286 287 288 289 290 291 292 293 293 293 293 292
253 254 254 255 256 257 257 258 261 263 266 269 270 271 270 270 271 273 273 273 274 274 276 276 277 279 280 282 284 284 284 286 288 288 290 291 292 293 293 294 294 295 294
254 255 256 256 256 257 259 259 261 263 266 268 270 271 270 271 271 272 273 274 275 275 276 276 277 278 280 281 282 283 283 285 287 289 290 290 292 293 294 295 296 296 295
255 256 256 257 258 258 260 262 263 265 266 268 269 271 272 272 273 272 274 275 276 276 276 276 276 279 280 282 283 283 284 286 288 289 290 291 293 294 294 294 295 295 296
256 257 257 258 260 261 262 264 266 266 267 268 269 270 272 273 273 274 275 276 276 276 274 275 277 279 281 283 283 284 286 288 289 289 290 292 293 294 294 294 294 295 296
256 257 258 260 262 263 264 266 267 267 268 267 268 270 271 272 273 274 274 275 275 274 275 276 278 280 280 282 283 285 287 288 289 289 290 292 293 294 293 294 295 295 296
258 259 260 261 262 264 265 266 267 268 268 267 267 269 271 272 273 273 274 274 272 272 275 277 278 278 279 281 283 286 287 288 288 288 289 291 293 294 294 295 296 297 297
261 260 261 262 263 265 267 267 268 268 268 268 269 269 270 271 272 272 273 272 270 272 274 275 275 276 277 281 284 286 287 288 289 289 290 292 292 293 294 296 298 299 298
263 263 264 264 265 267 267 267 267 268 268 269 269 270 270 270 270 271 272 270 269 272 273 274 274 275 278 281 285 286 286 286 287 289 291 291 291 293 295 296 298 299 299
265 266 266 267 267 267 266 267 267 269 269 269 270 271 271 270 269 269 267 268 271 271 271 273 274 276 278 281 283 286 286 285 287 288 289 290 291 293 295 296 298 299 300
268 268 268 269 268 267 267 268 268 269 268 269 271 271 270 269 268 267 267 268 271 272 273 273 275 278 279 281 284 285 286 286 286 287 288 289 291 292 294 296 297 299 301
270 269 269 270 269 268 269 270 269 268 268 269 270 269 268 268 267 265 266 269 271 272 273 274 275 278 279 281 283 284 285 285 286 287 287 288 289 292 294 297 298 301 302
272 272 271 271 270 270 271 271 269 268 268 269 268 267 266 265 264 264 267 269 272 273 273 275 276 279 280 282 284 285 284 284 284 285 286 288 290 293 295 297 299 300 301
274 274 273 272 271 271 270 269 269 270 269 268 266 265 264 263 263 265 267 270 272 275 276 277 278 279 280 281 283 284 284 283 283 284 286 289 292 294 296 298 299 299 301
274 273 273 272 272 272 271 270 269 268 268 267 265 264 264 263 265 268 269 270 272 273 276 280 281 282 281 283 283 284 285 284 285 286 287 289 291 294 295 296 298 300 301
273 272 273 272 272 272 271 270 271 268 267 266 266 265 264 266 268 268 268 269 269 272 277 279 280 282 283 285 285 286 287 286 285 285 288 290 292 293 294 295 298 301 302
272 273 272 271 271 273 273 273 272 270 268 266 266 266 267 268 267 267 268 270 272 273 275 277 279 280 282 285 287 286 285 285 286 288 289 290 292 292 293 296 299 301 302
272 272 272 271 271 271 274 273 271 269 267 266 266 268 269 269 268 268 269 271 272 272 274 275 276 278 280 283 284 284 285 286 288 289 289 288 289 291 293 295 298 301 302
270 271 271 270 269 271 271 270 271 271 270 269 268 270 271 271 269 269 269 270 271 271 272 273 275 278 280 281 283 283 285 287 288 288 288 288 290 291 294 295 298 300 302
269 269 268 268 268 269 269 270 272 272 271 271 271 271 271 270 269 267 268 268 268 268 269 271 273 276 279 281 280 281 282 284 285 286 287 289 292 294 295 296 298 299 301
269 269 269 268 266 266 267 268 270 270 270 270 270 271 270 269 268 267 265 265 266 266 267 269 272 274 275 275 276 276 279 283 285 287 288 291 294 295 295 295 297 298 301
267 267 268 266 264 265 265 266 269 269 268 269 269 268 268 267 267 266 266 266 266 266 267 268 270 271 270 271 274 275 279 283 287 289 290 292 293 295 294 294 293 294 297
268 268 269 268 265 264 264 265 267 267 269 270 270 267 265 264 264 264 265 267 269 268 268 267 267 266 265 268 271 275 278 281 285 287 288 289 291 291 290 289 287 289 294
268 267 266 267 268 267 264 264 263 263 265 266 265 263 261 261 262 264 265 266 266 266 266 264 261 259 261 264 270 274 277 280 283 285 286 288 288 287 287 284 282 283 288
267 266 265 266 266 264 263 262 261 261 261 262 262 261 261 262 263 265 266 263 261 262 262 260 257 255 257 262 268 271 274 279 283 283 285 286 285 284 285 280 277 279 285
266 265 265 264 262 261 260 260 260 259 259 260 260 261 262 264 264 265 262 259 259 260 258 255 253 254 256 261 266 269 272 276 280 281 284 284 278 278 278 272 271 275 284
Height
5663 5665 5668 5670 5672 5673 5675 5676 5678 5679 5680 5681 5681 5681 5680 5680 5680 5679 5679 5678 5678 5677 5676 5675 5674 5672 5670 5668 5666 5664 5662 5659 5657 5655 5652 5648 5644 5640 5636 5632 5628 5624 5620
5653 5656 5657 5659 5661 5663 5664 5666 5667 5668 5669 5670 5670 5670 5670 5670 5669 5668 5668 5667 5667 5666 5665 5664 5663 5661 5659 5657 5655 5653 5651 5648 5646 5644 5641 5637 5633 5629 5625 5621 5616 5612 5608
5644 5646 5647 5649 5651 5652 5654 5655 5657 5658 5659 5660 5660 5659 5659 5658 5658 5658 5657 5656 5655 5655 5654 5653 5652 5650 5648 5646 5644 5642 5640 5638 5635 5632 5630 5626 5622 5618 5614 5610 5605 5600 5596
5634 5636 5638 5639 5641 5642 5644 5645 5646 5647 5648 5649 5649 5649 5648 5648 5647 5647 5646 5645 5644 5643 5643 5642 5640 5639 5637 5635 5633 5631 5629 5626 5624 5621 5618 5614 5611 5607 5603 5599 5594 5589 5585
5624 5626 5628 5629 5631 5632 5633 5634 5635 5636 5636 5637 5637 5637 5637 5636 5636 5635 5635 5634 5633 5632 5632 5631 5630 5628 5626 5624 5622 5620 5618 5616 5613 5610 5607 5603 5599 5595 5591 5587 5583 5579 5574
5615 5616 5618 5619 5621 5621 5622 5623 5624 5624 5624 5625 5626 5626 5625 5625 5624 5624 5623 5623 5622 5621 5620 5620 5619 5617 5615 5613 5611 5609 5607 5605 5602 5599 5596 5592 5589 5585 5581 5576 5572 5569 5565
5605 5606 5608 5609 5610 5611 5611 5611 5612 5612 5612 5613 5613 5613 5613 5613 5612 5612 5611 5611 5611 5610 5609 5609 5608 5607 5605 5603 5601 5599 5596 5593 5591 5588 5585 5582 5578 5575 5571 5567 5562 5557 5553
5595 5596 5597 5598 5599 5599 5599 5600 5600 5600 5601 5601 5601 5601 5601 5601 5600 5600 5600 5600 5599 5599 5598 5598 5597 5596 5595 5593 5591 5589 5586 5583 5580 5577 5574 5571 5568 5564 5560 5556 5552 5548 5543
5585 5586 5586 5587 5587 5588 5588 5588 5588 5589 5589 5589 5589 5589 5590 5589 5589 5589 5589 5589 5588 5588 5588 5587 5587 5586 5584 5582 5580 5578 5575 5573 5569 5566 5564 5561 5557 5554 5550 5546 5542 5538 5534
5575 5575 5575 5576 5576 5576 5576 5577 5577 5577 5578 5578 5578 5578 5578 5578 5578 5578 5578 5578 5578 5578 5577 5577 5576 5575 5573 5571 5569 5567 5565 5562 5559 5556 5554 5551 5548 5544 5541 5537 5532 5528 5524
5564 5565 5565 5565 5565 5565 5566 5565 5566 5566 5566 5567 5567 5567 5567 5567 5567 5567 5567 5567 5567 5567 5567 5566 5565 5564 5562 5561 5558 5556 5554 5551 5549 5546 5544 5541 5538 5534 5531 5527 5523 5519 5514
5555 5555 5555 5555 5555 5555 5555 5555 5555 5555 5555 5555 5556 5556 5556 5556 5556 5557 5557 5557 5557 5557 5556 5556 5555 5553 5552 5550 5548 5546 5544 5541 5539 5536 5534 5531 5528 5525 5521 5518 5514 5510 5506
5546 5545 5545 5544 5544 5544 5544 5544 5544 5544 5544 5544 5545 5545 5545 5546 5546 5547 5547 5548 5547 5546 5546 5546 5544 5543 5542 5540 5538 5536 5533 5531 5529 5526 5524 5521 5519 5515 5512 5509 5505 5501 5497
5536 5535 5535 5535 5534 5534 5534 5534 5534 5534 5534 5534 5534 5535 5535 5536 5537 5537 5538 5538 5538 5537 5536 5535 5534 5533 5531 5530 5527 5525 5523 5521 5519 5517 5514 5512 5510 5507 5504 5501 5498 5494 5491
5527 5526 5526 5525 5525 5525 5524 5524 5524 5524 5524 5524 5524 5524 5525 5526 5527 5528 5528 5528 5528 5528 5527 5526 5525 5523 5522 5520 5518 5516 5514 5512 5510 5508 5506 5504 5501 5499 5496 5493 5490 5487 5484
5518 5517 5517 5516 5516 5516 5515 5515 5513 5514 5514 5514 5514 5515 5515 5516 5517 5518 5518 5518 5518 5518 5517 5517 5515 5514 5513 5511 5509 5507 5505 5504 5502 5500 5498 5496 5494 5491 5489 5486 5484 5481 5478
5509 5508 5508 5508 5507 5507 5506 5506 5505 5505 5504 5505 5505 5505 5506 5506 5507 5508 5508 5508 5509 5508 5508 5507 5507 5506 5504 5502 5501 5499 5497 5496 5494 5492 5490 5489 5487 5484 5482 5480 5477 5475 5472
5499 5499 5499 5499 5499 5499 5498 5498 5497 5497 5497 5497 5497 5497 5497 5497 5498 5498 5499 5499 5499 5499 5499 5498 5498 5497 5496 5494 5493 5491 5490 5489 5487 5485 5484 5482 5480 5479 5477 5474 5472 5469 5466
5490 5490 5490 5490 5490 5490 5490 5490 5489 5489 5489 5489 5489 5489 5489 5489 5490 5490 5490 5490 5490 5490 5490 5490 5489 5489 5488 5487 5486 5484 5483 5482 5481 5479 5478 5476 5475 5473 5471 5469 5467 5464 5462
5482 5481 5481 5481 5482 5482 5482 5482 5482 5482 5482 5482 5482 5482 5481 5482 5482 5482 5481 5482 5482 5482 5482 5482 5482 5481 5481 5480 5479 5478 5477 5476 5475 5474 5472 5471 5469 5468 5466 5464 5462 5460 5458
5474 5473 5473 5473 5473 5474 5474 5474 5474 5474 5474 5474 5474 5474 5474 5474 5474 5474 5474 5474 5474 5475 5475 5475 5475 5475 5474 5474 5473 5473 5472 5471 5470 5468 5467 5466 5464 5463 5461 5460 5458 5456 5455
5465 5465 5465 5465 5465 5465 5466 5466 5467 5467 5467 5467 5467 5466 5466 5467 5467 5467 5467 5467 5467 5467 5467 5468 5468 5468 5468 5468 5468 5467 5466 5466 5465 5463 5462 5461 5460 5459 5457 5456 5455 5453 5452
5458 5458 5457 5457 5458 5458 5458 5459 5459 5459 5459 5460 5460 5460 5460 5460 5460 5460 5461 5461 5461 5461 5461 5461 5461 5462 5462 5462 5462 5462 5461 5461 5460 5459 5458 5457 5456 5455 5454 5453 5452 5451 5450
5451 5450 5450 5450 5451 5451 5451 5451 5452 5452 5453 5453 5453 5453 5454 5454 5454 5454 5454 5454 5455 5455 5455 5455 5455 5456 5457 5457 5457 5457 5457 5456 5455 5454 5453 5453 5452 5451 5450 5450 5449 5448 5448
5443 5444 5444 5444 5444 5444 5444 5445 5445 5446 5446 5447 5447 5447 5448 5448 5448 5448 5448 5448 5449 5449 5449 5450 5450 5451 5452 5453 5453 5452 5452 5452 5451 5450 5450 5449 5448 5448 5447 5447 5447 5446 5446
5437 5437 5437 5437 5438 5438 5439 5439 5440 5440 5441 5441 5442 5442 5442 5442 5442 5442 5443 5443 5443 5444 5444 5445 5446 5447 5448 5448 5448 5448 5448 5448 5447 5447 5446 5446 5445 5445 5445 5445 5445 5444 5444